W7KKE-3 Weather Reports


time (UTC)temp
C
wind
direction
speed
KPH
gust
KPH
rain 1hr
cm
rain 24hr
cm
rain mn
cm
humidity
%
barometer
mb
20260505193647 14 274 3.2 4.8 0.00 0.05 0.03 82 1013.3
20260505193147 14 224 1.6 6.4 0.00 0.05 0.03 83 1013.3
20260505192648 14 259 3.2 6.4 0.00 0.05 0.03 83 1013.3
20260505192148 14 287 3.2 6.4 0.00 0.05 0.03 83 1013.3
20260505191647 14 287 0.0 4.8 0.00 0.05 0.03 83 1013.3
20260505191150 14 282 3.2 4.8 0.00 0.05 0.03 83 1013.3
20260505190649 14 267 4.8 6.4 0.00 0.05 0.03 84 1013.3
20260505190147 13 288 1.6 6.4 0.00 0.05 0.03 84 1013.2
20260505185648 13 222 0.0 6.4 0.00 0.05 0.03 84 1013.2
20260505185147 13 197 1.6 4.8 0.00 0.05 0.03 84 1013.2
20260505184149 13 243 1.6 4.8 0.00 0.05 0.03 84 1013.2
20260505183647 13 221 1.6 1.6 0.00 0.05 0.03 85 1013.1
20260505183148 13 182 0.0 4.8 0.00 0.05 0.03 85 1013.1
20260505182648 13 196 0.0 4.8 0.00 0.05 0.03 85 1013.0
20260505182147 13 165 0.0 4.8 0.00 0.05 0.03 85 1013.0
20260505181647 13 253 0.0 4.8 0.00 0.05 0.03 85 1012.9
20260505181149 13 186 0.0 4.8 0.00 0.05 0.03 85 1012.9
20260505180647 13 207 1.6 16.1 0.00 0.05 0.03 85 1012.9
20260505180147 13 186 3.2 16.1 0.00 0.05 0.03 85 1012.9
20260505175648 13 168 1.6 16.1 0.00 0.05 0.03 85 1012.9
20260505175146 13 232 9.7 9.7 0.00 0.05 0.03 85 1012.9
20260505174647 13 187 4.8 9.7 0.00 0.05 0.03 85 1012.9
20260505173647 13 247 3.2 9.7 0.00 0.05 0.03 85 1012.9
20260505173148 13 226 0.0 9.7 0.00 0.05 0.03 85 1012.8
20260505172648 13 203 1.6 9.7 0.00 0.05 0.03 86 1012.8
20260505172146 13 254 3.2 6.4 0.00 0.05 0.03 86 1012.6
20260505171647 13 208 0.0 6.4 0.00 0.05 0.03 86 1012.6
20260505171147 13 196 1.6 4.8 0.00 0.05 0.03 86 1012.5
20260505170647 13 205 0.0 4.8 0.00 0.05 0.03 86 1012.4
20260505170147 13 222 0.0 3.2 0.00 0.05 0.03 86 1012.5
20260505165147 13 261 1.6 6.4 0.00 0.05 0.03 86 1012.5
20260505164147 13 243 0.0 6.4 0.00 0.05 0.03 86 1012.5
20260505163648 13 211 3.2 6.4 0.00 0.05 0.03 86 1012.4
20260505163147 13 278 1.6 6.4 0.00 0.05 0.03 86 1012.4
20260505162646 13 166 0.0 6.4 0.00 0.05 0.03 86 1012.3
20260505162147 13 222 1.6 9.7 0.00 0.05 0.03 86 1012.3
20260505161646 13 249 1.6 9.7 0.00 0.05 0.03 86 1012.3
20260505161149 13 243 0.0 9.7 0.00 0.05 0.03 87 1012.2
20260505160647 13 205 1.6 4.8 0.00 0.05 0.03 87 1012.1
20260505160147 13 236 1.6 8.0 0.00 0.05 0.03 87 1012.2
20260505153147 13 155 0.0 1.6 0.00 0.05 0.03 88 1012.1
20260505152147 13 99 0.0 11.3 0.00 0.05 0.03 88 1012.1
20260505151647 12 172 0.0 11.3 0.00 0.05 0.03 88 1012.1
20260505150647 12 186 1.6 4.8 0.00 0.05 0.03 88 1012.1
20260505150147 12 110 0.0 8.0 0.00 0.05 0.03 88 1012.0
20260505140147 12 154 0.0 3.2 0.00 0.05 0.03 88 1011.7
20260505124647 12 133 1.6 4.8 0.00 0.05 0.03 88 1011.1
20260505124149 12 112 0.0 4.8 0.00 0.05 0.03 88 1011.1
20260505123648 12 149 1.6 4.8 0.00 0.05 0.03 88 1011.0
20260505123147 12 148 0.0 6.4 0.00 0.05 0.03 88 1011.0
20260505122648 12 140 0.0 6.4 0.00 0.05 0.03 88 1011.0
20260505122146 12 163 1.6 6.4 0.00 0.05 0.03 88 1011.0
20260505121149 12 105 1.6 4.8 0.00 0.05 0.03 88 1011.0
20260505120147 12 77 1.6 4.8 0.00 0.05 0.03 88 1011.0
20260505115648 12 95 0.0 6.4 0.00 0.05 0.03 88 1011.0
20260505115147 12 117 3.2 6.4 0.00 0.05 0.03 88 1011.0
20260505114149 12 103 1.6 4.8 0.00 0.05 0.03 88 1011.0
20260505113147 12 205 1.6 8.0 0.00 0.05 0.03 88 1011.0
20260505112648 12 170 3.2 8.0 0.00 0.05 0.03 88 1011.0
20260505112147 12 98 3.2 6.4 0.00 0.05 0.03 88 1011.0
20260505111647 12 107 1.6 3.2 0.00 0.05 0.03 88 1011.0
20260505111150 12 169 0.0 9.7 0.00 0.05 0.03 88 1011.0
20260505110647 12 138 1.6 9.7 0.00 0.05 0.03 88 1010.9
20260505110148 12 179 3.2 9.7 0.00 0.05 0.03 88 1010.9
20260505102147 12 218 6.4 11.3 0.00 0.05 0.03 88 1010.9
20260505100147 12 205 4.8 12.9 0.00 0.05 0.03 88 1010.9
20260505095648 12 190 3.2 12.9 0.00 0.05 0.03 88 1010.8
20260505094647 12 142 6.4 16.1 0.00 0.05 0.03 88 1010.9
20260505094149 12 163 3.2 16.1 0.00 0.05 0.03 88 1010.9
20260505093647 12 200 1.6 16.1 0.00 0.05 0.03 88 1010.9
20260505093147 12 212 1.6 11.3 0.03 0.05 0.03 88 1010.8
20260505092648 12 183 6.4 9.7 0.03 0.05 0.03 88 1010.8
20260505091647 12 203 0.0 6.4 0.03 0.05 0.03 88 1010.8
20260505091149 12 233 3.2 6.4 0.03 0.05 0.03 88 1010.8
20260505090647 12 165 1.6 6.4 0.03 0.05 0.03 88 1010.8
20260505090148 12 158 0.0 3.2 0.03 0.03 0.03 88 1010.8
20260505084647 12 228 0.0 8.0 0.03 0.03 0.03 88 1010.7
20260505084149 12 135 0.0 3.2 0.03 0.03 0.03 88 1010.7
20260505083647 12 161 0.0 9.7 0.03 0.03 0.03 88 1010.7
20260505083147 12 201 1.6 9.7 0.00 0.03 0.03 88 1010.7
20260505082648 12 215 4.8 9.7 0.00 0.03 0.00 88 1010.7
20260505082146 12 225 4.8 8.0 0.00 0.03 0.00 88 1010.7
20260505081649 12 200 3.2 6.4 0.00 0.03 0.00 88 1010.6
20260505081149 12 259 4.8 4.8 0.00 0.03 0.00 88 1010.6
20260505080147 12 196 1.6 6.4 0.00 0.03 0.00 88 1010.5
20260505075648 12 191 3.2 6.4 0.00 0.03 0.00 88 1010.6
20260505075147 12 135 1.6 6.4 0.00 0.03 0.00 88 1010.5
20260505074647 12 133 0.0 11.3 0.00 0.03 0.00 88 1010.5
20260505074150 12 182 3.2 11.3 0.00 0.03 0.00 88 1010.5
20260505073647 12 214 0.0 11.3 0.00 0.03 0.00 88 1010.5
20260505072648 12 184 3.2 24.1 0.00 0.03 0.00 88 1010.5
20260505072147 12 180 4.8 24.1 0.00 0.03 0.00 88 1010.4
20260505071647 12 179 4.8 24.1 0.00 0.03 0.00 88 1010.4
20260505071149 12 172 9.7 14.5 0.00 0.03 0.00 87 1010.4
20260505070647 12 177 3.2 12.9 0.00 0.03 0.00 88 1010.4
20260505070147 12 191 6.4 12.9 0.00 0.03 0.00 88 1010.5
20260505065648 12 198 6.4 12.9 0.00 0.03 0.03 87 1010.5
20260505065147 12 201 4.8 8.0 0.00 0.03 0.03 87 1010.5
20260505064647 12 168 3.2 8.0 0.00 0.03 0.03 87 1010.5
20260505064149 12 186 3.2 9.7 0.03 0.03 0.03 87 1010.6
20260505063647 12 250 4.8 9.7 0.03 0.03 0.03 87 1010.6
20260505062649 12 161 4.8 11.3 0.03 0.03 0.03 87 1010.6
20260505062147 12 166 3.2 11.3 0.03 0.03 0.03 87 1010.5
20260505061647 12 182 3.2 11.3 0.03 0.03 0.03 87 1010.5
20260505060647 12 194 3.2 9.7 0.03 0.03 0.03 87 1010.6
20260505060147 12 179 4.8 9.7 0.03 0.03 0.03 87 1010.6
20260505055647 13 212 3.2 9.7 0.03 0.03 0.03 87 1010.6
20260505055147 12 170 0.0 6.4 0.03 0.03 0.03 87 1010.6
20260505054646 12 197 3.2 6.4 0.03 0.03 0.03 87 1010.6
20260505054148 12 179 0.0 6.4 0.00 0.03 0.03 87 1010.6
20260505053647 12 169 0.0 1.6 0.00 0.00 0.00 87 1010.6
20260505053147 12 0 0.0 11.3 0.00 0.00 0.00 87 1010.5
20260505051646 12 138 6.4 12.9 0.00 0.00 0.00 87 1010.7
20260505051149 12 186 4.8 12.9 0.00 0.00 0.00 87 1010.7
20260505050651 12 172 6.4 12.9 0.00 0.00 0.00 87 1010.7
20260505050147 12 233 4.8 12.9 0.00 0.00 0.00 87 1010.7
20260505041647 13 172 1.6 12.9 0.00 0.00 0.00 86 1010.3
20260505041150 13 253 4.8 14.5 0.00 0.00 0.00 86 1010.3
20260505040646 13 215 8.0 14.5 0.00 0.00 0.00 85 1010.3
20260505040146 13 239 8.0 14.5 0.00 0.00 0.00 85 1010.2
20260505035647 13 189 8.0 14.5 0.00 0.00 0.00 85 1010.2
20260505035146 13 189 6.4 14.5 0.00 0.00 0.00 85 1010.1
20260505034646 13 201 4.8 12.9 0.00 0.00 0.00 85 1010.1
20260505034147 13 200 6.4 12.9 0.00 0.00 0.00 85 1010.0
20260505033647 13 256 4.8 12.9 0.00 0.00 0.00 85 1009.9
20260505033146 13 173 0.0 12.9 0.00 0.00 0.00 85 1009.8
20260505032650 13 154 6.4 12.9 0.00 0.00 0.00 84 1009.8
20260505032146 13 221 1.6 9.7 0.00 0.00 0.00 84 1009.8
20260505031646 13 194 6.4 9.7 0.00 0.00 0.00 84 1009.7
20260505031148 13 246 6.4 16.1 0.00 0.00 0.00 84 1009.7
20260505030646 13 191 6.4 16.1 0.00 0.00 0.00 84 1009.6
20260505025648 13 214 8.0 12.9 0.00 0.00 0.00 84 1009.6
20260505025146 13 172 6.4 12.9 0.00 0.00 0.00 83 1009.7
20260505024646 13 219 4.8 12.9 0.00 0.00 0.00 83 1009.6
20260505024149 13 203 8.0 12.9 0.00 0.00 0.00 84 1009.6
20260505023646 13 198 3.2 12.9 0.00 0.00 0.00 83 1009.7
20260505023146 13 172 4.8 12.9 0.00 0.00 0.00 83 1009.7
20260505022647 13 232 3.2 16.1 0.00 0.00 0.00 83 1009.7
20260505022146 13 159 3.2 16.1 0.00 0.00 0.00 83 1009.8
20260505021646 13 183 6.4 16.1 0.00 0.00 0.00 83 1009.8
20260505021149 13 210 8.0 17.7 0.00 0.00 0.00 82 1009.8
20260505020146 13 198 6.4 17.7 0.00 0.00 0.00 82 1009.9
20260505015647 13 196 8.0 16.1 0.00 0.00 0.00 82 1009.9
20260505014646 13 189 4.8 20.9 0.00 0.00 0.00 81 1009.8
20260505014148 13 155 6.4 20.9 0.00 0.00 0.00 81 1009.8
20260505013647 13 233 8.0 20.9 0.00 0.00 0.00 81 1009.9
20260505013146 13 190 8.0 17.7 0.00 0.00 0.00 82 1009.9
20260505012648 13 166 8.0 17.7 0.00 0.00 0.00 81 1010.0
20260505012146 13 190 9.7 14.5 0.00 0.00 0.00 82 1010.0
20260505011646 13 163 8.0 20.9 0.00 0.00 0.00 82 1010.1
20260505011149 14 186 8.0 20.9 0.00 0.00 0.00 81 1010.2
20260505010646 14 176 8.0 20.9 0.00 0.00 0.00 81 1010.2
20260505010149 14 177 9.7 17.7 0.00 0.00 0.00 82 1010.3
20260505005648 14 175 8.0 17.7 0.00 0.00 0.00 82 1010.1
20260505005146 14 249 9.7 17.7 0.00 0.00 0.00 82 1010.2
20260505004148 14 154 9.7 16.1 0.00 0.00 0.00 82 1010.2
20260505003646 14 175 6.4 16.1 0.00 0.00 0.00 82 1010.1
20260505003146 14 186 8.0 14.5 0.00 0.00 0.00 82 1010.2
20260505002647 14 193 6.4 14.5 0.00 0.00 0.00 82 1010.3
20260505002146 14 170 6.4 16.1 0.00 0.00 0.00 82 1010.3
20260505001148 15 201 8.0 16.1 0.00 0.00 0.00 82 1010.3
20260505000646 15 268 8.0 17.7 0.00 0.00 0.00 82 1010.4
20260505000147 15 226 6.4 17.7 0.00 0.00 0.00 82 1010.5
20260504235648 15 219 6.4 17.7 0.00 0.00 0.00 83 1010.6
20260504235146 15 155 8.0 16.1 0.00 0.00 0.00 83 1010.6
20260504234646 15 259 4.8 16.1 0.00 0.00 0.00 82 1010.6
20260504234148 15 228 8.0 16.1 0.00 0.00 0.00 83 1010.6
20260504233646 15 189 3.2 16.1 0.00 0.00 0.00 82 1010.6
20260504233146 15 233 6.4 16.1 0.00 0.00 0.00 82 1010.6
20260504232647 15 211 4.8 16.1 0.00 0.00 0.00 82 1010.6
20260504232146 15 224 8.0 17.7 0.00 0.00 0.00 82 1010.6
20260504231646 15 267 11.3 17.7 0.00 0.00 0.00 82 1010.6
20260504231148 15 203 9.7 17.7 0.00 0.00 0.00 81 1010.6
20260504230646 15 218 4.8 16.1 0.00 0.00 0.00 81 1010.7
20260504230146 15 207 8.0 22.5 0.00 0.00 0.00 80 1010.6
20260504225648 15 232 6.4 22.5 0.00 0.00 0.00 81 1010.6
20260504225146 15 240 8.0 22.5 0.00 0.00 0.00 81 1010.5
20260504224646 15 243 9.7 17.7 0.00 0.00 0.00 81 1010.6
20260504224148 15 145 11.3 17.7 0.00 0.00 0.00 82 1010.6
20260504223647 15 239 4.8 20.9 0.00 0.00 0.00 81 1010.7
20260504223146 15 212 8.0 20.9 0.00 0.00 0.00 82 1010.7
20260504222648 15 245 6.4 20.9 0.00 0.00 0.00 82 1010.6
20260504222147 15 245 11.3 16.1 0.00 0.00 0.00 81 1010.7
20260504221646 15 182 8.0 16.1 0.00 0.00 0.00 82 1010.8
20260504221150 15 194 6.4 17.7 0.00 0.00 0.00 82 1010.8
20260504220647 15 247 4.8 17.7 0.00 0.00 0.00 82 1010.8
20260504220146 15 228 6.4 17.7 0.00 0.00 0.00 82 1010.8
20260504215647 15 235 9.7 14.5 0.00 0.00 0.00 82 1010.9
20260504215146 15 165 6.4 14.5 0.00 0.00 0.00 83 1010.8
20260504214646 15 250 8.0 19.3 0.00 0.00 0.00 83 1010.8
20260504214148 15 261 6.4 19.3 0.00 0.00 0.00 83 1010.9
20260504213646 15 152 8.0 19.3 0.00 0.00 0.00 83 1010.8
20260504213146 15 245 9.7 17.7 0.00 0.00 0.00 82 1010.8
20260504212647 15 169 9.7 17.7 0.00 0.00 0.00 82 1010.9
20260504212146 15 221 4.8 17.7 0.00 0.00 0.00 83 1010.8
20260504211646 15 203 8.0 16.1 0.00 0.00 0.00 82 1010.9
20260504211148 15 257 6.4 16.1 0.00 0.00 0.00 83 1010.9
20260504210646 15 176 4.8 16.1 0.00 0.00 0.00 84 1011.0
20260504210146 15 239 6.4 17.7 0.00 0.00 0.00 84 1011.0
20260504205647 15 170 8.0 17.7 0.00 0.00 0.00 83 1011.0
20260504205146 15 196 4.8 17.7 0.00 0.00 0.00 84 1011.0
20260504204646 14 236 9.7 19.3 0.00 0.00 0.00 84 1010.9
20260504204148 14 182 9.7 19.3 0.00 0.00 0.00 84 1011.0
20260504203646 14 182 9.7 19.3 0.00 0.00 0.00 84 1011.0
20260504203146 14 215 9.7 19.3 0.00 0.00 0.00 85 1011.1
20260504202146 14 231 9.7 19.3 0.00 0.00 0.00 85 1011.1
20260504201646 14 198 9.7 16.1 0.00 0.00 0.00 85 1011.1
20260504201149 14 190 6.4 14.5 0.00 0.00 0.00 85 1011.2
20260504200646 14 217 4.8 20.9 0.00 0.00 0.00 85 1011.2
20260504200146 13 182 9.7 20.9 0.00 0.00 0.00 86 1011.2
20260504195647 13 187 8.0 20.9 0.00 0.00 0.00 85 1011.1
20260504195147 13 217 8.0 17.7 0.00 0.00 0.00 85 1011.1
20260504194647 13 218 6.4 22.5 0.00 0.00 0.00 85 1011.1
20260504194148 13 197 12.9 22.5 0.00 0.00 0.00 85 1011.1